owner,sensor,date,latitude,longitude,vertical_datum,direction_of_sea_water_velocity,sea_water_speed,upward_sea_water_velocity,qcFlag 
TABS,ioos:station:wmo:42051:1,2016-09-01T00:00:00Z,29.6350,-93.6417,2.0,288.439204,46.72897709,-99999.0,'11111222,11111222,99999999' 
TABS,ioos:station:wmo:42051:1,2016-09-01T00:30:00Z,29.6350,-93.6417,2.0,292.7877304,42.62710523,-99999.0,'11111222,11111222,99999999' 
TABS,ioos:station:wmo:42051:1,2016-09-01T01:00:00Z,29.6350,-93.6417,2.0,286.5235879,44.26806637,-99999.0,'11111222,11111222,99999999' 
TABS,ioos:station:wmo:42051:1,2016-09-01T01:30:00Z,29.6350,-93.6417,2.0,291.8241004,47.66613997,-99999.0,'11111222,11111222,99999999' 
TABS,ioos:station:wmo:42051:1,2016-09-01T02:00:00Z,29.6350,-93.6417,2.0,290.5789604,47.59712701,-99999.0,'11111222,11111222,99999999' 
TABS,ioos:station:wmo:42051:1,2016-09-01T02:30:00Z,29.6350,-93.6417,2.0,291.5331256,44.35567607,-99999.0,'11111222,11111222,99999999' 
TABS,ioos:station:wmo:42051:1,2016-09-01T03:00:00Z,29.6350,-93.6417,2.0,290.6990521,47.95541784,-99999.0,'11111222,11111222,99999999' 
TABS,ioos:station:wmo:42051:1,2016-09-01T03:30:00Z,29.6350,-93.6417,2.0,293.540849,46.87066567,-99999.0,'11111222,11111222,99999999' 
TABS,ioos:station:wmo:42051:1,2016-09-01T04:00:00Z,29.6350,-93.6417,2.0,296.0967565,43.19333398,-99999.0,'11111222,11111222,99999999' 
TABS,ioos:station:wmo:42051:1,2016-09-01T04:30:00Z,29.6350,-93.6417,2.0,290.0541205,43.65685513,-99999.0,'11111222,11111222,99999999' 
TABS,ioos:station:wmo:42051:1,2016-09-01T05:00:00Z,29.6350,-93.6417,2.0,288.90297,44.94378711,-99999.0,'11111222,11111222,99999999' 
TABS,ioos:station:wmo:42051:1,2016-09-01T05:30:00Z,29.6350,-93.6417,2.0,288.9274417,51.17702707,-99999.0,'11111222,11111222,99999999' 
TABS,ioos:station:wmo:42051:1,2016-09-01T06:00:00Z,29.6350,-93.6417,2.0,286.0642064,47.84828106,-99999.0,'11111222,11111222,99999999' 
TABS,ioos:station:wmo:42051:1,2016-09-01T06:30:00Z,29.6350,-93.6417,2.0,285.0899507,46.44129305,-99999.0,'11111222,11111222,99999999' 
TABS,ioos:station:wmo:42051:1,2016-09-01T07:00:00Z,29.6350,-93.6417,2.0,279.0101317,44.9546616,-99999.0,'11111222,11111222,99999999' 
TABS,ioos:station:wmo:42051:1,2016-09-01T07:30:00Z,29.6350,-93.6417,2.0,276.0346064,44.04403365,-99999.0,'11111222,11111222,99999999' 
TABS,ioos:station:wmo:42051:1,2016-09-01T08:00:00Z,29.6350,-93.6417,2.0,277.2081199,47.26348485,-99999.0,'11111222,11111222,99999999' 
TABS,ioos:station:wmo:42051:1,2016-09-01T08:30:00Z,29.6350,-93.6417,2.0,277.4993523,43.52223455,-99999.0,'11111222,11111222,99999999' 
TABS,ioos:station:wmo:42051:1,2016-09-01T09:00:00Z,29.6350,-93.6417,2.0,276.1168694,42.42148984,-99999.0,'11111222,11111222,99999999' 
TABS,ioos:station:wmo:42051:1,2016-09-01T09:30:00Z,29.6350,-93.6417,2.0,270.6908534,43.98319338,-99999.0,'11111222,11111222,99999999' 
TABS,ioos:station:wmo:42051:1,2016-09-01T10:00:00Z,29.6350,-93.6417,2.0,266.3380754,43.21821954,-99999.0,'11111222,11111222,99999999' 
TABS,ioos:station:wmo:42051:1,2016-09-01T10:30:00Z,29.6350,-93.6417,2.0,262.6412842,43.25623192,-99999.0,'11111222,11111222,99999999' 
TABS,ioos:station:wmo:42051:1,2016-09-01T11:00:00Z,29.6350,-93.6417,2.0,260.1332581,45.6958346,-99999.0,'11111222,11111222,99999999' 
TABS,ioos:station:wmo:42051:1,2016-09-01T11:30:00Z,29.6350,-93.6417,2.0,257.0620461,45.9155845,-99999.0,'11111222,11111222,99999999' 
TABS,ioos:station:wmo:42051:1,2016-09-01T12:00:00Z,29.6350,-93.6417,2.0,256.4349269,50.09743007,-99999.0,'11111222,11111222,99999999' 
TABS,ioos:station:wmo:42051:1,2016-09-01T12:30:00Z,29.6350,-93.6417,2.0,258.038114,51.0484084,-99999.0,'11111222,11111222,99999999' 
TABS,ioos:station:wmo:42051:1,2016-09-01T13:00:00Z,29.6350,-93.6417,2.0,258.9120242,52.05157538,-99999.0,'11111222,11111222,99999999' 
TABS,ioos:station:wmo:42051:1,2016-09-01T13:30:00Z,29.6350,-93.6417,2.0,258.146071,52.09078997,-99999.0,'11111222,11111222,99999999' 
TABS,ioos:station:wmo:42051:1,2016-09-01T14:00:00Z,29.6350,-93.6417,2.0,258.9091784,50.16687553,-99999.0,'11111222,11111222,99999999' 
TABS,ioos:station:wmo:42051:1,2016-09-01T14:30:00Z,29.6350,-93.6417,2.0,259.4949554,53.86273294,-99999.0,'11111222,11111222,99999999' 
TABS,ioos:station:wmo:42051:1,2016-09-01T15:00:00Z,29.6350,-93.6417,2.0,262.4911268,50.96701384,-99999.0,'11111222,11111222,99999999' 
TABS,ioos:station:wmo:42051:1,2016-09-01T15:30:00Z,29.6350,-93.6417,2.0,264.0881254,55.34430865,-99999.0,'11111222,11111222,99999999' 
TABS,ioos:station:wmo:42051:1,2016-09-01T16:00:00Z,29.6350,-93.6417,2.0,271.2159211,54.21219881,-99999.0,'11111222,11111222,99999999' 
TABS,ioos:station:wmo:42051:1,2016-09-01T16:30:00Z,29.6350,-93.6417,2.0,281.8902695,48.43924442,-99999.0,'11111222,11111222,99999999' 
TABS,ioos:station:wmo:42051:1,2016-09-01T17:00:00Z,29.6350,-93.6417,2.0,278.5509116,51.65412665,-99999.0,'11111222,11111222,99999999' 
TABS,ioos:station:wmo:42051:1,2016-09-01T17:30:00Z,29.6350,-93.6417,2.0,278.561882,61.79864157,-99999.0,'11111222,11111222,99999999' 
TABS,ioos:station:wmo:42051:1,2016-09-01T18:00:00Z,29.6350,-93.6417,2.0,280.4449211,63.10560355,-99999.0,'11111222,11111222,99999999' 
TABS,ioos:station:wmo:42051:1,2016-09-01T18:30:00Z,29.6350,-93.6417,2.0,278.3192931,61.37578757,-99999.0,'11111222,11111222,99999999' 
TABS,ioos:station:wmo:42051:1,2016-09-01T19:00:00Z,29.6350,-93.6417,2.0,279.2470985,67.27418599,-99999.0,'11111222,11111222,99999999' 
TABS,ioos:station:wmo:42051:1,2016-09-01T19:30:00Z,29.6350,-93.6417,2.0,278.4794794,66.87091445,-99999.0,'11111222,11111222,99999999' 
TABS,ioos:station:wmo:42051:1,2016-09-01T20:00:00Z,29.6350,-93.6417,2.0,273.3294266,61.99461348,-99999.0,'11111222,11111222,99999999' 
TABS,ioos:station:wmo:42051:1,2016-09-01T20:30:00Z,29.6350,-93.6417,2.0,274.8674096,63.529065,-99999.0,'11111222,11111222,99999999' 
TABS,ioos:station:wmo:42051:1,2016-09-01T21:00:00Z,29.6350,-93.6417,2.0,270.6086706,63.11355639,-99999.0,'11111222,11111222,99999999' 
TABS,ioos:station:wmo:42051:1,2016-09-01T21:30:00Z,29.6350,-93.6417,2.0,272.5594173,55.54539135,-99999.0,'11111222,11111222,99999999' 
TABS,ioos:station:wmo:42051:1,2016-09-01T22:00:00Z,29.6350,-93.6417,2.0,269.4520826,53.37243671,-99999.0,'11111222,11111222,99999999' 
TABS,ioos:station:wmo:42051:1,2016-09-01T22:30:00Z,29.6350,-93.6417,2.0,264.4523802,46.75897775,-99999.0,'11111222,11111222,99999999' 
TABS,ioos:station:wmo:42051:1,2016-09-01T23:00:00Z,29.6350,-93.6417,2.0,262.7922024,43.99764653,-99999.0,'11111222,11111222,99999999' 
TABS,ioos:station:wmo:42051:1,2016-09-01T23:30:00Z,29.6350,-93.6417,2.0,267.0393674,41.24503606,-99999.0,'11111222,11111222,99999999' 
TABS,ioos:station:wmo:42051:1,2016-09-02T00:00:00Z,29.6350,-93.6417,2.0,267.6968219,39.57195598,-99999.0,'11111222,11111222,99999999' 
TABS,ioos:station:wmo:42051:1,2016-09-02T00:30:00Z,29.6350,-93.6417,2.0,270.6625018,37.21248446,-99999.0,'11111222,11111222,99999999' 
TABS,ioos:station:wmo:42051:1,2016-09-02T01:00:00Z,29.6350,-93.6417,2.0,267.2138767,39.91717049,-99999.0,'11111222,11111222,99999999' 
TABS,ioos:station:wmo:42051:1,2016-09-02T01:30:00Z,29.6350,-93.6417,2.0,266.8490165,35.84417665,-99999.0,'11111222,11111222,99999999' 
TABS,ioos:station:wmo:42051:1,2016-09-02T02:00:00Z,29.6350,-93.6417,2.0,267.5016344,35.56379339,-99999.0,'11111222,11111222,99999999' 
TABS,ioos:station:wmo:42051:1,2016-09-02T02:30:00Z,29.6350,-93.6417,2.0,259.9068751,37.20574284,-99999.0,'11111222,11111222,99999999' 
TABS,ioos:station:wmo:42051:1,2016-09-02T03:00:00Z,29.6350,-93.6417,2.0,249.1010475,35.8269354,-99999.0,'11111222,11111222,99999999' 
TABS,ioos:station:wmo:42051:1,2016-09-02T03:30:00Z,29.6350,-93.6417,2.0,241.4277282,36.77904431,-99999.0,'11111222,11111222,99999999' 
TABS,ioos:station:wmo:42051:1,2016-09-02T04:00:00Z,29.6350,-93.6417,2.0,242.3408626,33.97206205,-99999.0,'11111222,11111222,99999999' 
TABS,ioos:station:wmo:42051:1,2016-09-02T04:30:00Z,29.6350,-93.6417,2.0,240.8505542,37.693713,-99999.0,'11111222,11111222,99999999' 
TABS,ioos:station:wmo:42051:1,2016-09-02T05:00:00Z,29.6350,-93.6417,2.0,238.3464775,38.62599254,-99999.0,'11111222,11111222,99999999' 
TABS,ioos:station:wmo:42051:1,2016-09-02T05:30:00Z,29.6350,-93.6417,2.0,238.6819869,38.59306285,-99999.0,'11111222,11111222,99999999' 
TABS,ioos:station:wmo:42051:1,2016-09-02T06:00:00Z,29.6350,-93.6417,2.0,235.6555341,43.97672339,-99999.0,'11111222,11111222,99999999' 
TABS,ioos:station:wmo:42051:1,2016-09-02T06:30:00Z,29.6350,-93.6417,2.0,239.1631539,44.01179047,-99999.0,'11111222,11111222,99999999' 
TABS,ioos:station:wmo:42051:1,2016-09-02T07:00:00Z,29.6350,-93.6417,2.0,240.1195472,48.87726363,-99999.0,'11111222,11111222,99999999' 
TABS,ioos:station:wmo:42051:1,2016-09-02T07:30:00Z,29.6350,-93.6417,2.0,242.3174834,45.41870099,-99999.0,'11111222,11111222,99999999' 
TABS,ioos:station:wmo:42051:1,2016-09-02T08:00:00Z,29.6350,-93.6417,2.0,246.775942,47.95574001,-99999.0,'11111222,11111222,99999999' 
TABS,ioos:station:wmo:42051:1,2016-09-02T08:30:00Z,29.6350,-93.6417,2.0,245.8308452,55.83424755,-99999.0,'11111222,11111222,99999999' 
TABS,ioos:station:wmo:42051:1,2016-09-02T09:00:00Z,29.6350,-93.6417,2.0,246.4399839,58.34323268,-99999.0,'11111222,11111222,99999999' 
TABS,ioos:station:wmo:42051:1,2016-09-02T09:30:00Z,29.6350,-93.6417,2.0,253.1071942,59.08959722,-99999.0,'11111222,11111222,99999999' 
TABS,ioos:station:wmo:42051:1,2016-09-02T10:00:00Z,29.6350,-93.6417,2.0,254.1733865,57.45804817,-99999.0,'11111222,11111222,99999999' 
TABS,ioos:station:wmo:42051:1,2016-09-02T10:30:00Z,29.6350,-93.6417,2.0,255.3588235,59.30568691,-99999.0,'11111222,11111222,99999999' 
TABS,ioos:station:wmo:42051:1,2016-09-02T11:00:00Z,29.6350,-93.6417,2.0,260.0450681,63.3436232,-99999.0,'11111222,11111222,99999999' 
TABS,ioos:station:wmo:42051:1,2016-09-02T11:30:00Z,29.6350,-93.6417,2.0,262.8345561,60.3714411,-99999.0,'11111222,11111222,99999999' 
TABS,ioos:station:wmo:42051:1,2016-09-02T12:00:00Z,29.6350,-93.6417,2.0,264.8586659,62.04960596,-99999.0,'11111222,11111222,99999999' 
TABS,ioos:station:wmo:42051:1,2016-09-02T12:30:00Z,29.6350,-93.6417,2.0,267.4600827,64.77361345,-99999.0,'11111222,11111222,99999999' 
TABS,ioos:station:wmo:42051:1,2016-09-02T13:00:00Z,29.6350,-93.6417,2.0,269.0644391,64.94865049,-99999.0,'11111222,11111222,99999999' 
TABS,ioos:station:wmo:42051:1,2016-09-02T13:30:00Z,29.6350,-93.6417,2.0,269.7890633,65.3204409,-99999.0,'11111222,11111222,99999999' 
TABS,ioos:station:wmo:42051:1,2016-09-02T14:00:00Z,29.6350,-93.6417,2.0,272.6173402,67.01989332,-99999.0,'11111222,11111222,99999999' 
TABS,ioos:station:wmo:42051:1,2016-09-02T14:30:00Z,29.6350,-93.6417,2.0,275.8486534,65.85274634,-99999.0,'11111222,11111222,99999999' 
TABS,ioos:station:wmo:42051:1,2016-09-02T15:00:00Z,29.6350,-93.6417,2.0,279.9441244,64.56998142,-99999.0,'11111222,11111222,99999999' 
TABS,ioos:station:wmo:42051:1,2016-09-02T15:30:00Z,29.6350,-93.6417,2.0,282.0247514,64.80180862,-99999.0,'11111222,11111222,99999999' 
TABS,ioos:station:wmo:42051:1,2016-09-02T16:00:00Z,29.6350,-93.6417,2.0,283.4714014,67.6100954,-99999.0,'11111222,11111222,99999999' 
TABS,ioos:station:wmo:42051:1,2016-09-02T16:30:00Z,29.6350,-93.6417,2.0,284.2878715,66.37293726,-99999.0,'11111222,11111222,99999999' 
TABS,ioos:station:wmo:42051:1,2016-09-02T17:00:00Z,29.6350,-93.6417,2.0,288.6461264,64.4634664,-99999.0,'11111222,11111222,99999999' 
TABS,ioos:station:wmo:42051:1,2016-09-02T17:30:00Z,29.6350,-93.6417,2.0,292.4199827,59.20497699,-99999.0,'11111222,11111222,99999999' 
TABS,ioos:station:wmo:42051:1,2016-09-02T18:00:00Z,29.6350,-93.6417,2.0,296.1556032,55.64821111,-99999.0,'11111222,11111222,99999999' 
TABS,ioos:station:wmo:42051:1,2016-09-02T18:30:00Z,29.6350,-93.6417,2.0,294.3273619,50.27385205,-99999.0,'11111222,11111222,99999999' 
TABS,ioos:station:wmo:42051:1,2016-09-02T19:00:00Z,29.6350,-93.6417,2.0,293.7661917,48.80899302,-99999.0,'11111222,11111222,99999999' 
TABS,ioos:station:wmo:42051:1,2016-09-02T19:30:00Z,29.6350,-93.6417,2.0,292.0688744,47.40296404,-99999.0,'11111222,11111222,99999999' 
TABS,ioos:station:wmo:42051:1,2016-09-02T20:00:00Z,29.6350,-93.6417,2.0,297.9350034,43.03424218,-99999.0,'11111222,11111222,99999999' 
TABS,ioos:station:wmo:42051:1,2016-09-02T20:30:00Z,29.6350,-93.6417,2.0,295.8735944,34.07568781,-99999.0,'11111222,11111222,99999999' 
TABS,ioos:station:wmo:42051:1,2016-09-02T21:00:00Z,29.6350,-93.6417,2.0,294.13713,26.70474302,-99999.0,'11111222,11111222,99999999' 
TABS,ioos:station:wmo:42051:1,2016-09-02T21:30:00Z,29.6350,-93.6417,2.0,284.3071401,18.49354752,-99999.0,'11111222,11111222,99999999' 
TABS,ioos:station:wmo:42051:1,2016-09-02T22:00:00Z,29.6350,-93.6417,2.0,256.3670668,18.24398257,-99999.0,'11111222,11111222,99999999' 
TABS,ioos:station:wmo:42051:1,2016-09-02T22:30:00Z,29.6350,-93.6417,2.0,256.3069149,16.1798424,-99999.0,'11111222,11111222,99999999' 
TABS,ioos:station:wmo:42051:1,2016-09-02T23:00:00Z,29.6350,-93.6417,2.0,232.8491278,17.96621552,-99999.0,'11111222,11111222,99999999' 
TABS,ioos:station:wmo:42051:1,2016-09-02T23:30:00Z,29.6350,-93.6417,2.0,235.5470313,15.83809332,-99999.0,'11111222,11111222,99999999' 
TABS,ioos:station:wmo:42051:1,2016-09-03T00:00:00Z,29.6350,-93.6417,2.0,231.6035441,17.64626023,-99999.0,'11111222,11111222,99999999' 
TABS,ioos:station:wmo:42051:1,2016-09-03T00:30:00Z,29.6350,-93.6417,2.0,236.4848058,23.5804156,-99999.0,'11111222,11111222,99999999' 
TABS,ioos:station:wmo:42051:1,2016-09-03T01:00:00Z,29.6350,-93.6417,2.0,246.4014981,27.30321043,-99999.0,'11111222,11111222,99999999' 
TABS,ioos:station:wmo:42051:1,2016-09-03T01:30:00Z,29.6350,-93.6417,2.0,242.9994832,31.21193682,-99999.0,'11111222,11111222,99999999' 
TABS,ioos:station:wmo:42051:1,2016-09-03T02:00:00Z,29.6350,-93.6417,2.0,245.0674066,33.11619694,-99999.0,'11111222,11111222,99999999' 
TABS,ioos:station:wmo:42051:1,2016-09-03T02:30:00Z,29.6350,-93.6417,2.0,243.7828875,38.25535779,-99999.0,'11111222,11111222,99999999' 
TABS,ioos:station:wmo:42051:1,2016-09-03T03:00:00Z,29.6350,-93.6417,2.0,243.4221019,41.0363205,-99999.0,'11111222,11111222,99999999' 
TABS,ioos:station:wmo:42051:1,2016-09-03T03:30:00Z,29.6350,-93.6417,2.0,243.0909921,38.77858816,-99999.0,'11111222,11111222,99999999' 
TABS,ioos:station:wmo:42051:1,2016-09-03T04:00:00Z,29.6350,-93.6417,2.0,240.8734185,42.73369748,-99999.0,'11111222,11111222,99999999' 
TABS,ioos:station:wmo:42051:1,2016-09-03T04:30:00Z,29.6350,-93.6417,2.0,247.4142265,42.20693071,-99999.0,'11111222,11111222,99999999' 
TABS,ioos:station:wmo:42051:1,2016-09-03T05:00:00Z,29.6350,-93.6417,2.0,251.0094683,43.73002858,-99999.0,'11111222,11111222,99999999' 
TABS,ioos:station:wmo:42051:1,2016-09-03T05:30:00Z,29.6350,-93.6417,2.0,249.1754203,45.51311899,-99999.0,'11111222,11111222,99999999' 
TABS,ioos:station:wmo:42051:1,2016-09-03T06:00:00Z,29.6350,-93.6417,2.0,252.4703818,47.01313114,-99999.0,'11111222,11111222,99999999' 
TABS,ioos:station:wmo:42051:1,2016-09-03T06:30:00Z,29.6350,-93.6417,2.0,257.7645959,49.07465334,-99999.0,'11111222,11111222,99999999' 
TABS,ioos:station:wmo:42051:1,2016-09-03T07:00:00Z,29.6350,-93.6417,2.0,257.4520117,46.30597802,-99999.0,'11111222,11111222,99999999' 
TABS,ioos:station:wmo:42051:1,2016-09-03T07:30:00Z,29.6350,-93.6417,2.0,264.0156989,47.77028888,-99999.0,'11111222,11111222,99999999' 
TABS,ioos:station:wmo:42051:1,2016-09-03T08:00:00Z,29.6350,-93.6417,2.0,264.5175485,50.13932788,-99999.0,'11111222,11111222,99999999' 
TABS,ioos:station:wmo:42051:1,2016-09-03T08:30:00Z,29.6350,-93.6417,2.0,270.5628532,53.99260134,-99999.0,'11111222,11111222,99999999' 
TABS,ioos:station:wmo:42051:1,2016-09-03T09:00:00Z,29.6350,-93.6417,2.0,271.1472942,51.46030898,-99999.0,'11111222,11111222,99999999' 
TABS,ioos:station:wmo:42051:1,2016-09-03T09:30:00Z,29.6350,-93.6417,2.0,272.8572272,51.16358568,-99999.0,'11111222,11111222,99999999' 
TABS,ioos:station:wmo:42051:1,2016-09-03T10:00:00Z,29.6350,-93.6417,2.0,274.9754701,51.31332088,-99999.0,'11111222,11111222,99999999' 
TABS,ioos:station:wmo:42051:1,2016-09-03T10:30:00Z,29.6350,-93.6417,2.0,272.4059269,52.41618929,-99999.0,'11111222,11111222,99999999' 
TABS,ioos:station:wmo:42051:1,2016-09-03T11:00:00Z,29.6350,-93.6417,2.0,272.8266324,54.55635802,-99999.0,'11111222,11111222,99999999' 
TABS,ioos:station:wmo:42051:1,2016-09-03T11:30:00Z,29.6350,-93.6417,2.0,273.7774449,55.56068034,-99999.0,'11111222,11111222,99999999' 
TABS,ioos:station:wmo:42051:1,2016-09-03T12:00:00Z,29.6350,-93.6417,2.0,275.1252382,54.40749673,-99999.0,'11111222,11111222,99999999' 
TABS,ioos:station:wmo:42051:1,2016-09-03T12:30:00Z,29.6350,-93.6417,2.0,274.7196058,55.66872371,-99999.0,'11111222,11111222,99999999' 
TABS,ioos:station:wmo:42051:1,2016-09-03T13:00:00Z,29.6350,-93.6417,2.0,274.175686,57.8234641,-99999.0,'11111222,11111222,99999999' 
TABS,ioos:station:wmo:42051:1,2016-09-03T13:30:00Z,29.6350,-93.6417,2.0,273.443217,51.12226325,-99999.0,'11111222,11111222,99999999' 
TABS,ioos:station:wmo:42051:1,2016-09-03T14:00:00Z,29.6350,-93.6417,2.0,272.8043004,47.4267783,-99999.0,'11111222,11111222,99999999' 
TABS,ioos:station:wmo:42051:1,2016-09-03T14:30:00Z,29.6350,-93.6417,2.0,274.136606,45.19772118,-99999.0,'11111222,11111222,99999999' 
TABS,ioos:station:wmo:42051:1,2016-09-03T15:00:00Z,29.6350,-93.6417,2.0,272.3944106,47.40137129,-99999.0,'11111222,11111222,99999999' 
TABS,ioos:station:wmo:42051:1,2016-09-03T15:30:00Z,29.6350,-93.6417,2.0,272.5127638,45.85407506,-99999.0,'11111222,11111222,99999999' 
TABS,ioos:station:wmo:42051:1,2016-09-03T16:00:00Z,29.6350,-93.6417,2.0,272.0188699,46.27871433,-99999.0,'11111222,11111222,99999999' 
TABS,ioos:station:wmo:42051:1,2016-09-03T16:30:00Z,29.6350,-93.6417,2.0,269.5603536,46.96137988,-99999.0,'11111222,11111222,99999999' 
TABS,ioos:station:wmo:42051:1,2016-09-03T17:00:00Z,29.6350,-93.6417,2.0,272.2714803,49.20865168,-99999.0,'11111222,11111222,99999999' 
TABS,ioos:station:wmo:42051:1,2016-09-03T17:30:00Z,29.6350,-93.6417,2.0,274.4019741,46.12604145,-99999.0,'11111222,11111222,99999999' 
TABS,ioos:station:wmo:42051:1,2016-09-03T18:00:00Z,29.6350,-93.6417,2.0,273.4894279,45.02345167,-99999.0,'11111222,11111222,99999999' 
TABS,ioos:station:wmo:42051:1,2016-09-03T18:30:00Z,29.6350,-93.6417,2.0,272.2246193,45.86455385,-99999.0,'11111222,11111222,99999999' 
TABS,ioos:station:wmo:42051:1,2016-09-03T19:00:00Z,29.6350,-93.6417,2.0,274.3133658,45.60915807,-99999.0,'11111222,11111222,99999999' 
TABS,ioos:station:wmo:42051:1,2016-09-03T19:30:00Z,29.6350,-93.6417,2.0,268.2108528,45.49216746,-99999.0,'11111222,11111222,99999999' 
TABS,ioos:station:wmo:42051:1,2016-09-03T20:00:00Z,29.6350,-93.6417,2.0,268.7217132,39.45981373,-99999.0,'11111222,11111222,99999999' 
TABS,ioos:station:wmo:42051:1,2016-09-03T20:30:00Z,29.6350,-93.6417,2.0,266.6068117,38.35722878,-99999.0,'11111222,11111222,99999999' 
TABS,ioos:station:wmo:42051:1,2016-09-03T21:00:00Z,29.6350,-93.6417,2.0,264.9035912,36.36373606,-99999.0,'11111222,11111222,99999999' 
TABS,ioos:station:wmo:42051:1,2016-09-03T21:30:00Z,29.6350,-93.6417,2.0,258.6301266,37.74060943,-99999.0,'11111222,11111222,99999999' 
TABS,ioos:station:wmo:42051:1,2016-09-03T22:00:00Z,29.6350,-93.6417,2.0,250.434158,34.45972287,-99999.0,'11111222,11111222,99999999' 
TABS,ioos:station:wmo:42051:1,2016-09-03T22:30:00Z,29.6350,-93.6417,2.0,244.8266076,31.47971093,-99999.0,'11111222,11111222,99999999' 
TABS,ioos:station:wmo:42051:1,2016-09-03T23:00:00Z,29.6350,-93.6417,2.0,237.2304739,32.44305781,-99999.0,'11111222,11111222,99999999' 
TABS,ioos:station:wmo:42051:1,2016-09-03T23:30:00Z,29.6350,-93.6417,2.0,239.0270078,33.16954175,-99999.0,'11111222,11111222,99999999' 
TABS,ioos:station:wmo:42051:1,2016-09-04T00:00:00Z,29.6350,-93.6417,2.0,234.7925814,34.0483377,-99999.0,'11111222,11111222,99999999' 
TABS,ioos:station:wmo:42051:1,2016-09-04T00:30:00Z,29.6350,-93.6417,2.0,237.1981625,32.72847384,-99999.0,'11111222,11111222,99999999' 
TABS,ioos:station:wmo:42051:1,2016-09-04T01:00:00Z,29.6350,-93.6417,2.0,243.9455445,38.11305813,-99999.0,'11111222,11111222,99999999' 
TABS,ioos:station:wmo:42051:1,2016-09-04T01:30:00Z,29.6350,-93.6417,2.0,246.5212103,36.29484399,-99999.0,'11111222,11111222,99999999' 
TABS,ioos:station:wmo:42051:1,2016-09-04T02:00:00Z,29.6350,-93.6417,2.0,247.0560663,38.94062146,-99999.0,'11111222,11111222,99999999' 
TABS,ioos:station:wmo:42051:1,2016-09-04T02:30:00Z,29.6350,-93.6417,2.0,246.3647953,36.04334751,-99999.0,'11111222,11111222,99999999' 
TABS,ioos:station:wmo:42051:1,2016-09-04T03:00:00Z,29.6350,-93.6417,2.0,244.7666512,38.28288521,-99999.0,'11111222,11111222,99999999' 
TABS,ioos:station:wmo:42051:1,2016-09-04T03:30:00Z,29.6350,-93.6417,2.0,248.2542023,32.30914731,-99999.0,'11111222,11111222,99999999' 
TABS,ioos:station:wmo:42051:1,2016-09-04T04:00:00Z,29.6350,-93.6417,2.0,255.9075499,32.36396916,-99999.0,'11111222,11111222,99999999' 
TABS,ioos:station:wmo:42051:1,2016-09-04T04:30:00Z,29.6350,-93.6417,2.0,251.9786359,32.38889316,-99999.0,'11111222,11111222,99999999' 
TABS,ioos:station:wmo:42051:1,2016-09-04T05:00:00Z,29.6350,-93.6417,2.0,248.8052548,34.35370868,-99999.0,'11111222,11111222,99999999' 
TABS,ioos:station:wmo:42051:1,2016-09-04T05:30:00Z,29.6350,-93.6417,2.0,255.8188269,36.53325745,-99999.0,'11111222,11111222,99999999' 
TABS,ioos:station:wmo:42051:1,2016-09-04T06:00:00Z,29.6350,-93.6417,2.0,256.6794407,40.36593118,-99999.0,'11111222,11111222,99999999' 
TABS,ioos:station:wmo:42051:1,2016-09-04T06:30:00Z,29.6350,-93.6417,2.0,255.2136492,52.27090204,-99999.0,'11111222,11111222,99999999' 
TABS,ioos:station:wmo:42051:1,2016-09-04T07:00:00Z,29.6350,-93.6417,2.0,254.7716706,51.77800305,-99999.0,'11111222,11111222,99999999' 
TABS,ioos:station:wmo:42051:1,2016-09-04T07:30:00Z,29.6350,-93.6417,2.0,256.2815647,56.33704376,-99999.0,'11111222,11111222,99999999' 
TABS,ioos:station:wmo:42051:1,2016-09-04T08:00:00Z,29.6350,-93.6417,2.0,253.9795398,50.58444425,-99999.0,'11111222,11111222,99999999' 
TABS,ioos:station:wmo:42051:1,2016-09-04T08:30:00Z,29.6350,-93.6417,2.0,253.5881019,51.49817958,-99999.0,'11111222,11111222,99999999' 
TABS,ioos:station:wmo:42051:1,2016-09-04T09:00:00Z,29.6350,-93.6417,2.0,252.5953987,53.79272256,-99999.0,'11111222,11111222,99999999' 
TABS,ioos:station:wmo:42051:1,2016-09-04T09:30:00Z,29.6350,-93.6417,2.0,250.3589527,52.74898388,-99999.0,'11111222,11111222,99999999' 
TABS,ioos:station:wmo:42051:1,2016-09-04T10:00:00Z,29.6350,-93.6417,2.0,251.6887281,51.1183382,-99999.0,'11111222,11111222,99999999' 
TABS,ioos:station:wmo:42051:1,2016-09-04T10:30:00Z,29.6350,-93.6417,2.0,246.8920721,51.24108703,-99999.0,'11111222,11111222,99999999' 
TABS,ioos:station:wmo:42051:1,2016-09-04T11:00:00Z,29.6350,-93.6417,2.0,248.372552,48.21416078,-99999.0,'11111222,11111222,99999999' 
TABS,ioos:station:wmo:42051:1,2016-09-04T11:30:00Z,29.6350,-93.6417,2.0,242.4739779,48.81575258,-99999.0,'11111222,11111222,99999999' 
TABS,ioos:station:wmo:42051:1,2016-09-04T12:00:00Z,29.6350,-93.6417,2.0,243.8162373,48.34038994,-99999.0,'11111222,11111222,99999999' 
TABS,ioos:station:wmo:42051:1,2016-09-04T12:30:00Z,29.6350,-93.6417,2.0,248.4246259,50.28297624,-99999.0,'11111222,11111222,99999999' 
TABS,ioos:station:wmo:42051:1,2016-09-04T13:00:00Z,29.6350,-93.6417,2.0,247.6741449,50.75451606,-99999.0,'11111222,11111222,99999999' 
TABS,ioos:station:wmo:42051:1,2016-09-04T13:30:00Z,29.6350,-93.6417,2.0,253.3550496,48.17868408,-99999.0,'11111222,11111222,99999999' 
TABS,ioos:station:wmo:42051:1,2016-09-04T14:00:00Z,29.6350,-93.6417,2.0,250.3904598,46.60278532,-99999.0,'11111222,11111222,99999999' 
TABS,ioos:station:wmo:42051:1,2016-09-04T14:30:00Z,29.6350,-93.6417,2.0,253.13773,42.85236283,-99999.0,'11111222,11111222,99999999' 
TABS,ioos:station:wmo:42051:1,2016-09-04T15:00:00Z,29.6350,-93.6417,2.0,253.8545646,40.601282,-99999.0,'11111222,11111222,99999999' 
TABS,ioos:station:wmo:42051:1,2016-09-04T15:30:00Z,29.6350,-93.6417,2.0,245.4773269,41.15191369,-99999.0,'11111222,11111222,99999999' 
TABS,ioos:station:wmo:42051:1,2016-09-04T16:00:00Z,29.6350,-93.6417,2.0,244.5675839,40.93699183,-99999.0,'11111222,11111222,99999999' 